Location: Alafon
(8.4500°N, 4.2333°E)
Time: 18:37:07
(UTC+00:00)

A-11 Canister half - Pass Details

Date: 12 August 2021
Orbit: 1515 x 1685 km, 47.2° (Epoch: 19 September)

Event Time Altitude Azimuth Distance (km) Brightness Sun altitude
Rises 19:00:28 0° 346° (NNW) 4,881 12.1 -15.1°
Reaches altitude 10° 19:07:04 10° 17° (NNE) 3,924 11.2 -16.6°
Maximum altitude 19:10:08 12° 35° (NE) 3,805 10.9 -17.3°
Drops below altitude 10° 19:13:12 10° 53° (NE) 3,940 10.8 -18.1°
Enters shadow 19:15:04 - 63° (ENE) 4,137 10.8 -18.5°
Sets 19:19:47 0° 83° (E) 4,931 - -19.6°
